Location: Long Geng
(2.6167°N, 114.1333°E)
Time: 20:44:19
(UTC+00:00)

Cosmos 1743 Rocket - Pass Details

Date: 14 May 2021
Orbit: 605 x 632 km, 82.6° (Epoch: 16 June)

Event Time Altitude Azimuth Distance (km) Brightness Sun altitude
Rises 12:01:13 0° 360° (N) 2,868 7.3 -23.0°
Reaches altitude 10° 12:03:26 10° 2° (N) 1,970 6.3 -23.5°
Enters shadow 12:06:51 53° 24° (NNE) 765 3.9 -24.3°
